Location: ???????????
(54.5822°N, 39.1075°E)
Time: 18:11:30
(UTC+00:00)

Cosmos 1980 - Pass Details

Date: 19 May 2025
Orbit: 837 x 846 km, 71.0° (Epoch: 20 June)

Event Time Altitude Azimuth Distance (km) Brightness Sun altitude
Rises 23:04:46 0° 326° (NW) 3,420 7.3 -12.1°
Reaches altitude 10° 23:07:13 10° 325° (NW) 2,481 6.5 -12.0°
Maximum altitude 23:12:55 78° 240° (WSW) 870 3.7 -11.6°
Drops below altitude 10° 23:18:34 10° 156° (SSE) 2,461 5.8 -11.2°
Sets 23:20:59 0° 155° (SSE) 3,390 6.5 -11.1°
